Flag for U.S.A. Weather past 2 weeks in Mountain View, California, U.S.A.

Now
69 °F

Overcast.


Feels Like: 69 °F
Forecast: 62 / 74 °F
Wind: 3 mph from North

Location: Moffett Field

Current Time: Jul 7, 2015 at 10:48:24 AM

Latest Report: Jul 7, 2015 at 9:56 AM


Visibility: 10 mi

Pressure: 30.04 "Hg

Humidity: 66%

Dew point: 57 °F

Location of Mountain ViewLocation

Historic Weather in Mountain View — Graph

°F

Mountain View temperature yesterday

Maximum temperature yesterday: 76 °F (at 2:56 PM)
Minimum temperature yesterday: 63 °F (at 5:56 AM)
Average temperature yesterday: 69 °F

Past Weeks' High & Low Weather Summary

 TemperatureHumidityPressure
High89 °F (Jun 30, 3:56 PM)90% (Jul 2, 5:56 AM)30.10 "Hg (Jul 2, 5:56 AM)
Low55 °F (Jun 24, 5:56 AM)31% (Jun 30, 3:56 PM)29.81 "Hg (Jun 30, 5:56 PM)
Average68 °F70%29.95 "Hg
* Reported Jun 22 9:56 AM — Jul 7 9:56 AM, Mountain View, Weather by CustomWeather, © 2015

Note: Actual official high and low records may vary slightly from our data, if they occured in-between our weather recording intervals... More about our weather records

Advertising

Mountain View weather history for previous 24 hours

 ConditionsComfort  
Time TempWeatherWind HumidityBarometerVisibility
9:56 AM
Tue, Jul 7
69 °FOvercast.3 mph66%30.04 "Hg10 mi
8:56 AM67 °FOvercast.6 mph73%30.06 "Hg10 mi
7:56 AM67 °FPassing clouds.No wind73%30.05 "Hg10 mi
6:56 AM65 °FPartly sunny.No wind78%30.04 "Hg10 mi
5:56 AM64 °FOvercast.No wind81%30.04 "Hg10 mi
4:56 AM63 °FPassing clouds.5 mph84%30.03 "Hg10 mi
3:56 AM63 °FPassing clouds.3 mph84%30.03 "Hg10 mi
2:56 AM63 °FPassing clouds.3 mph84%30.03 "Hg10 mi
1:56 AM64 °FClear.3 mph81%30.04 "Hg10 mi
12:56 AM64 °FClear.3 mph81%30.05 "Hg10 mi
11:56 PM
Mon, Jul 6
64 °FClear.6 mph78%30.06 "Hg10 mi
10:56 PM65 °FClear.6 mph76%30.05 "Hg10 mi
9:56 PM67 °FClear.3 mph71%30.05 "Hg10 mi
8:56 PM69 °FSunny.7 mph66%30.04 "Hg10 mi
7:56 PM71 °FSunny.8 mph63%30.02 "Hg10 mi
6:56 PM73 °FSunny.14 mph62%30.01 "Hg10 mi
5:56 PM76 °FSunny.17 mph54%30.01 "Hg10 mi
4:56 PM75 °FSunny.16 mph58%30.02 "Hg10 mi
3:56 PM75 °FSunny.21 mph55%30.04 "Hg10 mi
2:56 PM76 °FSunny.22 mph54%30.06 "Hg10 mi
1:56 PM75 °FSunny.16 mph55%30.07 "Hg10 mi
12:56 PM74 °FSunny.12 mph57%30.08 "Hg10 mi
11:56 AM72 °FSunny.9 mph61%30.10 "Hg10 mi
10:56 AM70 °FSunny.9 mph64%30.09 "Hg10 mi
Weather by CustomWeather, © 2015

See weather overviewHow to use our weather pages